Home > Weather > Stamford > Past weeks

Flag for USA Past Weather in Stamford, Connecticut, USA — Yesterday and Last 2 Weeks

Now
75 °F

Scattered clouds.


Feels Like: 77 °F
Forecast: 67 / 85 °F
Wind: 5 mph from Northeast

Location: Westchester County Airport

Current Time: May 31, 2016 at 10:15:55 AM

Latest Report: May 31, 2016 at 8:56 AM


Visibility: 10 mi

Pressure: 29.96 "Hg

Humidity: 60%

Dew Point: 60 °F

Location of StamfordLocation

Past Weather in Stamford — Graph

°F

Stamford Temperature Yesterday

Maximum temperature yesterday: 79 °F (at 1:56 PM)
Minimum temperature yesterday: 68 °F (at 12:56 AM)
Average temperature yesterday: 71 °F

High & Low Weather Summary for the Past Weeks

 TemperatureHumidityPressure
High89 °F (May 28, 12:56 PM)97% (May 25, 3:56 AM)30.26 "Hg (May 25, 3:56 AM)
Low46 °F (May 16, 8:56 AM)20% (May 25, 2:56 PM)29.80 "Hg (May 22, 3:56 AM)
Average65 °F63%30.03 "Hg
* Reported May 16 8:56 AM — May 31 8:56 AM, Stamford, Weather by CustomWeather, © 2016

Note: Actual official high and low records may vary slightly from our data, if they occured in-between our weather recording intervals... More about our weather records

Advertising

Stamford Weather History for the Previous 24 Hours

Scroll right to see more
 ConditionsComfort  
Time TempWeatherWind HumidityBarometerVisibility
8:56 AM
Tue, May 31
75 °FScattered clouds.5 mph60%29.96 "Hg10 mi
7:56 AM73 °FPassing clouds.No wind79%29.95 "Hg10 mi
7:03 AM70 °FFog.5 mph94%29.96 "Hg6 mi
5:56 AM68 °FFog.No wind93%29.92 "Hg5 mi
4:56 AM68 °FPassing clouds.No wind93%29.91 "Hg9 mi
3:56 AM70 °FClear.No wind90%29.91 "Hg10 mi
2:56 AM70 °FClear.6 mph90%29.91 "Hg10 mi
1:56 AM70 °FClear.3 mph90%29.91 "Hg10 mi
12:56 AM69 °FPassing clouds.No wind93%29.92 "Hg10 mi
11:56 PM
Mon, May 30
69 °FClear.3 mph93%29.93 "Hg10 mi
10:56 PM69 °FPassing clouds.3 mph93%29.95 "Hg10 mi
9:56 PM70 °FPassing clouds.3 mph93%29.94 "Hg10 mi
8:56 PM70 °FScattered clouds.5 mph93%29.93 "Hg10 mi
7:56 PM71 °FScattered clouds.8 mph90%29.93 "Hg10 mi
6:56 PM73 °FPassing clouds.8 mph88%29.92 "Hg10 mi
5:56 PM74 °FPassing clouds.8 mph85%29.92 "Hg10 mi
4:56 PM76 °FPassing clouds.6 mph77%29.91 "Hg10 mi
3:56 PM78 °FPassing clouds.9 mph74%29.92 "Hg10 mi
2:56 PM79 °FScattered clouds.No wind65%29.93 "Hg10 mi
1:56 PM79 °FPartly sunny.3 mph69%29.94 "Hg10 mi
12:56 PM77 °FPartly sunny.5 mph71%29.95 "Hg10 mi
11:56 AM74 °FPartly sunny.3 mph76%29.96 "Hg10 mi
10:56 AM71 °FPartly sunny.6 mph87%29.98 "Hg10 mi
Weather by CustomWeather, © 2016

See weather overviewHow to use our weather pages